GLD166 SVMI-SBGR

Flight info

Callsign GLD166
Flight time 5h 37m
Altitude 35000
Route SOSKA2 CBC UM417 LAIKA UZ6 MNS DCT UTPAM UZ87 PALCA DCT OBLUG DCT ZARES MOLE1D
Aircraft A320/M-SDFGIRY/S

Departure

Time 2026-05-07 18:49
Airport Maiquetía Simón Bolívar International Airport (SVMI)

Arrival

Time 2026-05-08 00:27
Airport São Paulo/Guarulhos–Governor André Franco Montoro International Airport (SBGR)
Time Latitude Longitude Altitude Speed Heading
2026-05-07 18:32 10.59850 -66.99923 283 ft 0 kts 70°
2026-05-07 18:33 10.59845 -66.99938 231 ft 3 kts 82°
2026-05-07 18:33 10.59845 -66.99955 231 ft 1 kts 110°
2026-05-07 18:33 10.59851 -66.99967 231 ft 3 kts 107°
2026-05-07 18:33 10.59853 -66.99981 228 ft 0 kts 92°
2026-05-07 18:37 10.59856 -66.99976 227 ft 2 kts 63°
2026-05-07 18:38 10.59872 -66.99959 228 ft 5 kts 38°
2026-05-07 18:38 10.59919 -66.99940 228 ft 10 kts 21°
2026-05-07 18:38 10.59990 -66.99921 226 ft 12 kts 358°
2026-05-07 18:38 10.60081 -66.99924 220 ft 12 kts 358°
2026-05-07 18:39 10.60133 -66.99858 217 ft 14 kts 83°
2026-05-07 18:39 10.60135 -66.99752 217 ft 16 kts 92°
2026-05-07 18:39 10.60095 -66.99670 220 ft 11 kts 165°
2026-05-07 18:39 10.60041 -66.99671 225 ft 5 kts 180°
2026-05-07 18:40 10.60032 -66.99671 226 ft 0 kts 180°
2026-05-07 18:48 10.60014 -66.99671 229 ft 6 kts 180°
2026-05-07 18:48 10.59951 -66.99672 231 ft 13 kts 179°
2026-05-07 18:48 10.59919 -66.99584 227 ft 25 kts 80°
2026-05-07 18:48 10.60019 -66.99139 204 ft 105 kts 76°
2026-05-07 18:49 10.60239 -66.98168 172 ft 168 kts 79°
2026-05-07 18:49 10.60507 -66.96928 596 ft 188 kts 79°
2026-05-07 18:49 10.60791 -66.95567 1156 ft 204 kts 79°
2026-05-07 18:49 10.61090 -66.94088 1358 ft 225 kts 79°
2026-05-07 18:50 10.61415 -66.92450 1543 ft 248 kts 78°
2026-05-07 18:50 10.61760 -66.90683 2017 ft 258 kts 79°
2026-05-07 18:50 10.62096 -66.88878 2743 ft 262 kts 80°
2026-05-07 18:50 10.62418 -66.87046 3497 ft 264 kts 81°
2026-05-07 18:51 10.62727 -66.85256 4522 ft 253 kts 81°
2026-05-07 18:51 10.63030 -66.83494 5299 ft 253 kts 81°
2026-05-07 18:51 10.63334 -66.81727 6018 ft 255 kts 82°
2026-05-07 18:51 10.63641 -66.79946 6712 ft 257 kts 81°
2026-05-07 18:52 10.63952 -66.78150 7382 ft 259 kts 81°
2026-05-07 18:52 10.64267 -66.76340 8058 ft 261 kts 81°
2026-05-07 18:52 10.64583 -66.74518 8757 ft 263 kts 81°
2026-05-07 18:52 10.64900 -66.72685 9447 ft 265 kts 81°
2026-05-07 18:53 10.65217 -66.70850 10080 ft 267 kts 82°
2026-05-07 18:53 10.65540 -66.68979 10675 ft 269 kts 81°
2026-05-07 18:53 10.65866 -66.67100 11287 ft 271 kts 81°
2026-05-07 18:53 10.66193 -66.65209 11889 ft 272 kts 81°
2026-05-07 18:54 10.66522 -66.63308 12478 ft 274 kts 80°
2026-05-07 18:54 10.66854 -66.61390 13071 ft 276 kts 80°
2026-05-07 18:54 10.67192 -66.59432 13382 ft 290 kts 80°
2026-05-07 18:54 10.67551 -66.57355 13521 ft 308 kts 79°
2026-05-07 18:55 10.67935 -66.55153 13649 ft 325 kts 80°
2026-05-07 18:55 10.68337 -66.52837 13780 ft 341 kts 80°
2026-05-07 18:55 10.68579 -66.50389 13891 ft 356 kts 89°
2026-05-07 18:55 10.68334 -66.47846 14123 ft 367 kts 101°
2026-05-07 18:56 10.67695 -66.45309 14531 ft 372 kts 103°
2026-05-07 18:56 10.67037 -66.42756 14986 ft 375 kts 103°
2026-05-07 18:56 10.66367 -66.40143 15437 ft 379 kts 104°
2026-05-07 18:56 10.65701 -66.37535 15860 ft 383 kts 104°
2026-05-07 18:57 10.65028 -66.34897 16267 ft 388 kts 104°
2026-05-07 18:57 10.64345 -66.32222 16680 ft 393 kts 104°
2026-05-07 18:57 10.63652 -66.29514 17092 ft 399 kts 104°
2026-05-07 18:57 10.62950 -66.26771 17509 ft 404 kts 105°
2026-05-07 18:58 10.62242 -66.23990 17924 ft 409 kts 105°
2026-05-07 18:58 10.61526 -66.21175 18327 ft 414 kts 105°
2026-05-07 18:58 10.60796 -66.18324 18720 ft 419 kts 105°
2026-05-07 18:58 10.60052 -66.15449 19152 ft 422 kts 105°
2026-05-07 18:59 10.59302 -66.12554 19554 ft 426 kts 105°
2026-05-07 18:59 10.58429 -66.09664 19972 ft 429 kts 113°
2026-05-07 18:59 10.57065 -66.06974 20377 ft 430 kts 124°
2026-05-07 18:59 10.55215 -66.04581 20770 ft 432 kts 135°
2026-05-07 19:00 10.52944 -66.02582 21149 ft 433 kts 147°
2026-05-07 19:00 10.50364 -66.01009 21522 ft 434 kts 153°
2026-05-07 19:00 10.47713 -65.99509 21896 ft 437 kts 153°
2026-05-07 19:00 10.45052 -65.97996 22272 ft 440 kts 152°
2026-05-07 19:01 10.42373 -65.96468 22639 ft 443 kts 152°
2026-05-07 19:01 10.39681 -65.94928 23011 ft 446 kts 152°
2026-05-07 19:01 10.36968 -65.93378 23366 ft 448 kts 152°
2026-05-07 19:01 10.34239 -65.91820 23680 ft 451 kts 152°
2026-05-07 19:02 10.31499 -65.90256 23979 ft 453 kts 152°
2026-05-07 19:02 10.28744 -65.88685 24280 ft 455 kts 152°
2026-05-07 19:02 10.25980 -65.87109 24573 ft 457 kts 152°
2026-05-07 19:02 10.23196 -65.85525 24865 ft 459 kts 152°
2026-05-07 19:03 10.20405 -65.83938 25162 ft 461 kts 153°
2026-05-07 19:03 10.17602 -65.82344 25466 ft 463 kts 153°
2026-05-07 19:03 10.14787 -65.80742 25757 ft 465 kts 153°
2026-05-07 19:03 10.11962 -65.79135 26042 ft 467 kts 153°
2026-05-07 19:04 10.09128 -65.77522 26402 ft 466 kts 153°
2026-05-07 19:04 10.06260 -65.75904 26806 ft 464 kts 155°
2026-05-07 19:04 10.03323 -65.74559 27179 ft 462 kts 159°
2026-05-07 19:04 10.00370 -65.73269 27578 ft 461 kts 160°
2026-05-07 19:05 9.97428 -65.71983 27982 ft 460 kts 160°
2026-05-07 19:05 9.94489 -65.70704 28377 ft 459 kts 160°
2026-05-07 19:05 9.91553 -65.69428 28796 ft 458 kts 160°
2026-05-07 19:05 9.88626 -65.68156 29221 ft 457 kts 160°
2026-05-07 19:06 9.85704 -65.66885 29653 ft 456 kts 160°
2026-05-07 19:06 9.79893 -65.64353 30459 ft 454 kts 160°
2026-05-07 19:06 9.76997 -65.63091 30824 ft 453 kts 161°
2026-05-07 19:07 9.74099 -65.61830 31171 ft 453 kts 161°
2026-05-07 19:07 9.71204 -65.60573 31519 ft 452 kts 161°
2026-05-07 19:07 9.68316 -65.59319 31865 ft 452 kts 161°
2026-05-07 19:07 9.65422 -65.58062 32213 ft 452 kts 161°
2026-05-07 19:08 9.62531 -65.56809 32558 ft 452 kts 161°
2026-05-07 19:08 9.59642 -65.55558 32884 ft 452 kts 161°
2026-05-07 19:08 9.56751 -65.54306 33225 ft 452 kts 161°
2026-05-07 19:08 9.53862 -65.53052 33567 ft 452 kts 161°
2026-05-07 19:09 9.50978 -65.51796 33884 ft 451 kts 161°
2026-05-07 19:09 9.48096 -65.50540 34161 ft 451 kts 161°
2026-05-07 19:09 9.46144 -65.49690 34346 ft 451 kts 161°
2026-05-07 19:09 9.43262 -65.48438 34620 ft 451 kts 161°
2026-05-07 19:10 9.40376 -65.47188 34843 ft 451 kts 161°
2026-05-07 19:10 9.37484 -65.45937 34895 ft 454 kts 161°
2026-05-07 19:10 9.31587 -65.43390 34901 ft 467 kts 161°
2026-05-07 19:11 9.25594 -65.40794 34903 ft 470 kts 161°
2026-05-07 19:11 9.19578 -65.38182 34904 ft 471 kts 161°
2026-05-07 19:12 9.13556 -65.35570 34904 ft 471 kts 161°
2026-05-07 19:12 9.07532 -65.32960 34898 ft 471 kts 161°
2026-05-07 19:13 9.01498 -65.30352 34901 ft 472 kts 161°
2026-05-07 19:13 8.95460 -65.27740 34904 ft 472 kts 161°
2026-05-07 19:14 8.89414 -65.25126 34906 ft 473 kts 161°
2026-05-07 19:14 8.83368 -65.22507 34911 ft 473 kts 161°
2026-05-07 19:15 8.77317 -65.19888 34917 ft 473 kts 161°
2026-05-07 19:15 8.71261 -65.17265 34915 ft 473 kts 161°
2026-05-07 19:16 8.65168 -65.14637 34920 ft 473 kts 161°
2026-05-07 19:16 8.59110 -65.12030 34920 ft 473 kts 161°
2026-05-07 19:17 8.53072 -65.09418 34919 ft 472 kts 160°
2026-05-07 19:17 8.47032 -65.06810 34918 ft 472 kts 160°
2026-05-07 19:18 8.41001 -65.04207 34921 ft 471 kts 160°
2026-05-07 19:18 8.34978 -65.01607 34920 ft 470 kts 160°
2026-05-07 19:19 8.28955 -64.99009 34914 ft 470 kts 160°
2026-05-07 19:19 8.22940 -64.96418 34920 ft 470 kts 160°
2026-05-07 19:20 8.16926 -64.93838 34915 ft 470 kts 160°
2026-05-07 19:20 8.10909 -64.91248 34915 ft 470 kts 160°
2026-05-07 19:21 8.04896 -64.88654 34916 ft 470 kts 160°
2026-05-07 19:21 7.98884 -64.86065 34915 ft 470 kts 160°
2026-05-07 19:22 7.92872 -64.83482 34915 ft 470 kts 160°
2026-05-07 19:22 7.86856 -64.80888 34909 ft 470 kts 160°
2026-05-07 19:23 7.80842 -64.78299 34910 ft 470 kts 160°
2026-05-07 19:23 7.74821 -64.75707 34908 ft 471 kts 160°
2026-05-07 19:24 7.68755 -64.73101 34908 ft 471 kts 160°
2026-05-07 19:24 7.62726 -64.70519 34908 ft 471 kts 160°
2026-05-07 19:25 7.56688 -64.67925 34909 ft 471 kts 160°
2026-05-07 19:25 7.50656 -64.65336 34905 ft 471 kts 160°
2026-05-07 19:26 7.44621 -64.62750 34908 ft 471 kts 160°
2026-05-07 19:26 7.38585 -64.60157 34908 ft 471 kts 160°
2026-05-07 19:27 7.32555 -64.57555 34906 ft 472 kts 160°
2026-05-07 19:27 7.26536 -64.54935 34907 ft 472 kts 160°
2026-05-07 19:28 7.20508 -64.52318 34905 ft 471 kts 160°
2026-05-07 19:28 7.14482 -64.49700 34909 ft 471 kts 160°
2026-05-07 19:29 7.08458 -64.47085 34908 ft 472 kts 160°
2026-05-07 19:29 7.02436 -64.44474 34912 ft 472 kts 160°
2026-05-07 19:30 6.96403 -64.41865 34910 ft 472 kts 160°
2026-05-07 19:30 6.90378 -64.39255 34913 ft 472 kts 160°
2026-05-07 19:31 6.84306 -64.36619 34916 ft 472 kts 160°
2026-05-07 19:31 6.78319 -64.34027 34913 ft 472 kts 160°
2026-05-07 19:32 6.72252 -64.31404 34913 ft 471 kts 160°
2026-05-07 19:32 6.66224 -64.28802 34914 ft 472 kts 160°
2026-05-07 19:33 6.60198 -64.26198 34912 ft 471 kts 160°
2026-05-07 19:33 6.54179 -64.23585 34914 ft 471 kts 160°
2026-05-07 19:34 6.48148 -64.20981 34912 ft 471 kts 160°
2026-05-07 19:34 6.42124 -64.18382 34914 ft 471 kts 160°
2026-05-07 19:35 6.36100 -64.15783 34915 ft 471 kts 160°
2026-05-07 19:35 6.30081 -64.13186 34915 ft 471 kts 160°
2026-05-07 19:36 6.24063 -64.10584 34912 ft 471 kts 159°
2026-05-07 19:36 6.18045 -64.07980 34917 ft 471 kts 159°
2026-05-07 19:37 6.12029 -64.05381 34918 ft 470 kts 159°
2026-05-07 19:37 6.06017 -64.02790 34926 ft 470 kts 159°
2026-05-07 19:38 6.00009 -64.00192 34932 ft 470 kts 159°
2026-05-07 19:38 5.94006 -63.97605 34935 ft 470 kts 159°
2026-05-07 19:39 5.87964 -63.95002 34940 ft 469 kts 159°
2026-05-07 19:39 5.82979 -63.92850 34946 ft 469 kts 159°
2026-05-07 19:40 5.75970 -63.89824 34944 ft 469 kts 159°
2026-05-07 19:40 5.69978 -63.87245 34951 ft 468 kts 159°
2026-05-07 19:41 5.63988 -63.84672 34949 ft 468 kts 159°
2026-05-07 19:41 5.58003 -63.82097 34948 ft 468 kts 159°
2026-05-07 19:42 5.53027 -63.79958 34947 ft 468 kts 159°
2026-05-07 19:42 5.47041 -63.77382 34939 ft 468 kts 159°
2026-05-07 19:43 5.41060 -63.74798 34937 ft 468 kts 159°
2026-05-07 19:43 5.35073 -63.72216 34935 ft 468 kts 159°
2026-05-07 19:44 5.29085 -63.69644 34930 ft 468 kts 159°
2026-05-07 19:44 5.23102 -63.67076 34929 ft 468 kts 159°
2026-05-07 19:45 5.17081 -63.64479 34932 ft 468 kts 159°
2026-05-07 19:45 5.11098 -63.61901 34933 ft 468 kts 159°
2026-05-07 19:46 5.05124 -63.59328 34933 ft 467 kts 159°
2026-05-07 19:46 4.99138 -63.56763 34935 ft 467 kts 159°
2026-05-07 19:47 4.93165 -63.54200 34936 ft 467 kts 159°
2026-05-07 19:47 4.87194 -63.51629 34934 ft 467 kts 159°
2026-05-07 19:48 4.81224 -63.49059 34935 ft 467 kts 159°
2026-05-07 19:48 4.75252 -63.46493 34936 ft 467 kts 159°
2026-05-07 19:49 4.69286 -63.43935 34936 ft 466 kts 159°
2026-05-07 19:49 4.63321 -63.41374 34939 ft 466 kts 159°
2026-05-07 19:50 4.57360 -63.38811 34940 ft 466 kts 159°
2026-05-07 19:50 4.51402 -63.36260 34938 ft 465 kts 159°
2026-05-07 19:51 4.45450 -63.33708 34939 ft 465 kts 159°
2026-05-07 19:51 4.39504 -63.31157 34939 ft 465 kts 159°
2026-05-07 19:52 4.33523 -63.28587 34934 ft 465 kts 159°
2026-05-07 19:52 4.27583 -63.26035 34932 ft 464 kts 159°
2026-05-07 19:53 4.21644 -63.23496 34931 ft 464 kts 159°
2026-05-07 19:53 4.15701 -63.20957 34931 ft 464 kts 159°
2026-05-07 19:54 4.09762 -63.18409 34932 ft 464 kts 159°
2026-05-07 19:54 4.03820 -63.15858 34934 ft 464 kts 159°
2026-05-07 19:55 3.97885 -63.13311 34934 ft 464 kts 159°
2026-05-07 19:55 3.91947 -63.10761 34935 ft 464 kts 159°
2026-05-07 19:56 3.86008 -63.08218 34933 ft 464 kts 159°
2026-05-07 19:56 3.80067 -63.05680 34932 ft 464 kts 159°
2026-05-07 19:57 3.74131 -63.03145 34937 ft 464 kts 159°
2026-05-07 19:57 3.68197 -63.00599 34935 ft 464 kts 159°
2026-05-07 19:58 3.62262 -62.98048 34930 ft 464 kts 159°
2026-05-07 19:58 3.56323 -62.95520 34925 ft 464 kts 159°
2026-05-07 19:59 3.50379 -62.92997 34924 ft 464 kts 159°
2026-05-07 19:59 3.44440 -62.90463 34920 ft 464 kts 159°
2026-05-07 20:00 3.38466 -62.87914 34909 ft 464 kts 159°
2026-05-07 20:00 3.32530 -62.85393 34910 ft 464 kts 159°
2026-05-07 20:01 3.26594 -62.82868 34914 ft 463 kts 159°
2026-05-07 20:01 3.20666 -62.80341 34911 ft 463 kts 159°
2026-05-07 20:02 3.14731 -62.77810 34906 ft 463 kts 159°
2026-05-07 20:02 3.08798 -62.75284 34906 ft 463 kts 159°
2026-05-07 20:03 3.02865 -62.72764 34906 ft 463 kts 159°
2026-05-07 20:03 2.96939 -62.70241 34903 ft 463 kts 159°
2026-05-07 20:04 2.91008 -62.67722 34905 ft 463 kts 159°
2026-05-07 20:04 2.85083 -62.65203 34907 ft 463 kts 159°
2026-05-07 20:05 2.79156 -62.62686 34905 ft 462 kts 159°
2026-05-07 20:05 2.73234 -62.60171 34903 ft 462 kts 159°
2026-05-07 20:06 2.67318 -62.57655 34902 ft 462 kts 159°
2026-05-07 20:06 2.61356 -62.55117 34901 ft 463 kts 159°
2026-05-07 20:07 2.55437 -62.52600 34902 ft 462 kts 159°
2026-05-07 20:07 2.49520 -62.50084 34902 ft 462 kts 159°
2026-05-07 20:08 2.43601 -62.47572 34902 ft 462 kts 159°
2026-05-07 20:08 2.37691 -62.45068 34903 ft 462 kts 159°
2026-05-07 20:09 2.31779 -62.42557 34905 ft 462 kts 159°
2026-05-07 20:10 2.22913 -62.38792 34902 ft 461 kts 159°
2026-05-07 20:10 2.17023 -62.36253 34901 ft 461 kts 159°
2026-05-07 20:11 2.11161 -62.33644 34902 ft 461 kts 158°
2026-05-07 20:11 2.05298 -62.31029 34900 ft 461 kts 158°
2026-05-07 20:12 1.99435 -62.28425 34897 ft 461 kts 159°
2026-05-07 20:12 1.93573 -62.25832 34898 ft 461 kts 159°
2026-05-07 20:13 1.87707 -62.23247 34896 ft 461 kts 159°
2026-05-07 20:13 1.81838 -62.20664 34902 ft 461 kts 159°
2026-05-07 20:14 1.76931 -62.18492 34907 ft 461 kts 158°
2026-05-07 20:14 1.70077 -62.15454 34907 ft 461 kts 158°
2026-05-07 20:15 1.65207 -62.13306 34907 ft 461 kts 158°
2026-05-07 20:15 1.59337 -62.10716 34909 ft 461 kts 158°
2026-05-07 20:16 1.53467 -62.08117 34906 ft 461 kts 158°
2026-05-07 20:16 1.47600 -62.05527 34907 ft 461 kts 158°
2026-05-07 20:17 1.41727 -62.02934 34909 ft 461 kts 158°
2026-05-07 20:17 1.35853 -62.00344 34906 ft 462 kts 158°
2026-05-07 20:18 1.29977 -61.97748 34905 ft 462 kts 158°
2026-05-07 20:18 1.24105 -61.95149 34905 ft 461 kts 158°
2026-05-07 20:19 1.18198 -61.92538 34900 ft 461 kts 158°
2026-05-07 20:19 1.12329 -61.89950 34898 ft 461 kts 158°
2026-05-07 20:20 1.06460 -61.87361 34897 ft 461 kts 158°
2026-05-07 20:20 1.00598 -61.84770 34897 ft 461 kts 158°
2026-05-07 20:21 0.94738 -61.82183 34894 ft 460 kts 158°
2026-05-07 20:21 0.88878 -61.79595 34892 ft 460 kts 158°
2026-05-07 20:22 0.83027 -61.77006 34891 ft 460 kts 158°
2026-05-07 20:22 0.77187 -61.74419 34889 ft 459 kts 158°
2026-05-07 20:23 0.71342 -61.71846 34885 ft 459 kts 158°
2026-05-07 20:23 0.65498 -61.69272 34888 ft 459 kts 158°
2026-05-07 20:24 0.59655 -61.66699 34890 ft 459 kts 158°
2026-05-07 20:24 0.53818 -61.64117 34892 ft 459 kts 158°
2026-05-07 20:25 0.47990 -61.61533 34891 ft 458 kts 158°
2026-05-07 20:25 0.42161 -61.58961 34893 ft 458 kts 158°
2026-05-07 20:26 0.36341 -61.56392 34887 ft 457 kts 158°
2026-05-07 20:26 0.30522 -61.53825 34887 ft 457 kts 158°
2026-05-07 20:27 0.24663 -61.51243 34882 ft 457 kts 158°
2026-05-07 20:27 0.18849 -61.48676 34878 ft 457 kts 158°
2026-05-07 20:28 0.13028 -61.46108 34877 ft 458 kts 158°
2026-05-07 20:28 0.07202 -61.43544 34877 ft 458 kts 158°
2026-05-07 20:29 0.01377 -61.40969 34876 ft 458 kts 158°
2026-05-07 20:29 -0.04449 -61.38396 34877 ft 458 kts 158°
2026-05-07 20:30 -0.10282 -61.35818 34879 ft 458 kts 157°
2026-05-07 20:30 -0.16116 -61.33238 34882 ft 459 kts 157°
2026-05-07 20:31 -0.21951 -61.30663 34884 ft 459 kts 157°
2026-05-07 20:31 -0.27790 -61.28083 34880 ft 459 kts 157°
2026-05-07 20:32 -0.33632 -61.25504 34882 ft 459 kts 157°
2026-05-07 20:32 -0.39469 -61.22933 34877 ft 458 kts 157°
2026-05-07 20:33 -0.45305 -61.20359 34877 ft 458 kts 157°
2026-05-07 20:33 -0.51140 -61.17775 34877 ft 459 kts 157°
2026-05-07 20:34 -0.56974 -61.15198 34878 ft 459 kts 157°
2026-05-07 20:34 -0.62816 -61.12617 34879 ft 459 kts 157°
2026-05-07 20:35 -0.68692 -61.10025 34882 ft 459 kts 157°
2026-05-07 20:35 -0.74537 -61.07445 34884 ft 459 kts 156°
2026-05-07 20:36 -0.80377 -61.04870 34884 ft 459 kts 156°
2026-05-07 20:36 -0.86222 -61.02296 34886 ft 459 kts 156°
2026-05-07 20:37 -0.92059 -60.99707 34889 ft 459 kts 156°
2026-05-07 20:37 -0.97889 -60.97120 34888 ft 459 kts 156°
2026-05-07 20:38 -1.03733 -60.94547 34884 ft 459 kts 156°
2026-05-07 20:38 -1.09575 -60.91982 34890 ft 458 kts 157°
2026-05-07 20:39 -1.15407 -60.89409 34891 ft 458 kts 156°
2026-05-07 20:39 -1.21233 -60.86826 34891 ft 458 kts 156°
2026-05-07 20:40 -1.27057 -60.84249 34892 ft 458 kts 156°
2026-05-07 20:40 -1.32885 -60.81671 34893 ft 458 kts 156°
2026-05-07 20:41 -1.38712 -60.79096 34889 ft 458 kts 156°
2026-05-07 20:41 -1.44575 -60.76482 34892 ft 458 kts 156°
2026-05-07 20:42 -1.50385 -60.73876 34893 ft 458 kts 156°
2026-05-07 20:42 -1.56205 -60.71266 34894 ft 458 kts 156°
2026-05-07 20:43 -1.62028 -60.68664 34893 ft 458 kts 156°
2026-05-07 20:43 -1.67855 -60.66067 34895 ft 459 kts 156°
2026-05-07 20:44 -1.73680 -60.63464 34892 ft 459 kts 156°
2026-05-07 20:44 -1.79504 -60.60854 34893 ft 459 kts 156°
2026-05-07 20:45 -1.85332 -60.58246 34891 ft 459 kts 156°
2026-05-07 20:45 -1.91160 -60.55642 34889 ft 459 kts 156°
2026-05-07 20:46 -1.96984 -60.53037 34891 ft 459 kts 156°
2026-05-07 20:46 -2.02815 -60.50428 34887 ft 459 kts 156°
2026-05-07 20:47 -2.08644 -60.47821 34889 ft 459 kts 156°
2026-05-07 20:47 -2.13531 -60.45639 34887 ft 459 kts 156°
2026-05-07 20:48 -2.20313 -60.42610 34890 ft 459 kts 156°
2026-05-07 20:48 -2.26145 -60.40001 34885 ft 459 kts 156°
2026-05-07 20:49 -2.31036 -60.37814 34885 ft 459 kts 156°
2026-05-07 20:49 -2.36868 -60.35201 34879 ft 459 kts 156°
2026-05-07 20:50 -2.42710 -60.32586 34884 ft 460 kts 156°
2026-05-07 20:50 -2.48550 -60.29990 34878 ft 459 kts 156°
2026-05-07 20:51 -2.54405 -60.27410 34876 ft 459 kts 156°
2026-05-07 20:51 -2.60253 -60.24831 34872 ft 460 kts 156°
2026-05-07 20:52 -2.66103 -60.22244 34873 ft 460 kts 156°
2026-05-07 20:52 -2.71952 -60.19656 34870 ft 460 kts 156°
2026-05-07 20:53 -2.77755 -60.17087 34872 ft 460 kts 156°
2026-05-07 20:53 -2.83615 -60.14497 34880 ft 461 kts 156°
2026-05-07 20:54 -2.89486 -60.11904 34887 ft 461 kts 156°
2026-05-07 20:54 -2.95352 -60.09303 34891 ft 461 kts 156°
2026-05-07 20:55 -3.01257 -60.06686 34885 ft 461 kts 156°
2026-05-07 20:55 -3.06728 -60.03377 34890 ft 462 kts 142°
2026-05-07 20:56 -3.11826 -59.99459 34891 ft 462 kts 143°
2026-05-07 20:56 -3.16941 -59.95550 34894 ft 463 kts 143°
2026-05-07 20:57 -3.22053 -59.91633 34891 ft 463 kts 143°
2026-05-07 20:57 -3.27168 -59.87707 34884 ft 463 kts 143°
2026-05-07 20:58 -3.32283 -59.83780 34877 ft 464 kts 143°
2026-05-07 20:58 -3.37404 -59.79847 34872 ft 464 kts 143°
2026-05-07 20:59 -3.42520 -59.75910 34868 ft 464 kts 143°
2026-05-07 20:59 -3.47644 -59.71967 34873 ft 465 kts 143°
2026-05-07 21:00 -3.52791 -59.68047 34871 ft 465 kts 146°
2026-05-07 21:00 -3.58407 -59.64873 34864 ft 464 kts 152°
2026-05-07 21:01 -3.64102 -59.61816 34868 ft 464 kts 152°
2026-05-07 21:01 -3.69788 -59.58751 34879 ft 465 kts 152°
2026-05-07 21:02 -3.75484 -59.55686 34880 ft 465 kts 152°
2026-05-07 21:02 -3.81221 -59.52599 34880 ft 465 kts 152°
2026-05-07 21:03 -3.86911 -59.49530 34877 ft 464 kts 152°
2026-05-07 21:03 -3.92594 -59.46464 34876 ft 464 kts 152°
2026-05-07 21:04 -3.98279 -59.43400 34874 ft 464 kts 152°
2026-05-07 21:04 -4.03967 -59.40337 34876 ft 464 kts 152°
2026-05-07 21:05 -4.09650 -59.37274 34875 ft 464 kts 152°
2026-05-07 21:05 -4.15332 -59.34206 34876 ft 464 kts 152°
2026-05-07 21:06 -4.21019 -59.31136 34878 ft 464 kts 152°
2026-05-07 21:06 -4.26709 -59.28069 34877 ft 464 kts 152°
2026-05-07 21:07 -4.32391 -59.25002 34876 ft 464 kts 152°
2026-05-07 21:07 -4.38079 -59.21929 34876 ft 464 kts 152°
2026-05-07 21:08 -4.43771 -59.18865 34877 ft 464 kts 152°
2026-05-07 21:08 -4.49458 -59.15799 34878 ft 464 kts 152°
2026-05-07 21:09 -4.55141 -59.12727 34880 ft 464 kts 152°
2026-05-07 21:09 -4.60826 -59.09667 34883 ft 464 kts 152°
2026-05-07 21:10 -4.66506 -59.06607 34882 ft 463 kts 152°
2026-05-07 21:10 -4.72175 -59.03546 34883 ft 463 kts 152°
2026-05-07 21:11 -4.77880 -59.00460 34881 ft 462 kts 152°
2026-05-07 21:11 -4.86372 -58.95868 34880 ft 462 kts 152°
2026-05-07 21:12 -4.92037 -58.92813 34876 ft 462 kts 152°
2026-05-07 21:12 -4.97701 -58.89756 34876 ft 462 kts 152°
2026-05-07 21:13 -5.03360 -58.86687 34879 ft 462 kts 152°
2026-05-07 21:13 -5.09031 -58.83627 34878 ft 462 kts 152°
2026-05-07 21:14 -5.14692 -58.80570 34881 ft 462 kts 152°
2026-05-07 21:14 -5.20354 -58.77500 34877 ft 462 kts 152°
2026-05-07 21:15 -5.26013 -58.74442 34883 ft 462 kts 152°
2026-05-07 21:15 -5.31675 -58.71386 34885 ft 462 kts 152°
2026-05-07 21:16 -5.37337 -58.68316 34881 ft 462 kts 152°
2026-05-07 21:16 -5.42985 -58.65256 34882 ft 462 kts 152°
2026-05-07 21:17 -5.48648 -58.62195 34878 ft 462 kts 152°
2026-05-07 21:17 -5.54308 -58.59133 34881 ft 462 kts 152°
2026-05-07 21:18 -5.59996 -58.56048 34881 ft 462 kts 152°
2026-05-07 21:18 -5.65658 -58.52975 34880 ft 462 kts 152°
2026-05-07 21:19 -5.71317 -58.49907 34881 ft 462 kts 152°
2026-05-07 21:19 -5.76981 -58.46845 34882 ft 462 kts 152°
2026-05-07 21:20 -5.82648 -58.43782 34884 ft 463 kts 152°
2026-05-07 21:20 -5.87357 -58.41230 34884 ft 463 kts 152°
2026-05-07 21:21 -5.93971 -58.37630 34883 ft 463 kts 152°
2026-05-07 21:21 -5.98681 -58.35075 34882 ft 463 kts 152°
2026-05-07 21:22 -6.04347 -58.32003 34882 ft 463 kts 152°
2026-05-07 21:22 -6.10015 -58.28933 34881 ft 463 kts 152°
2026-05-07 21:23 -6.15680 -58.25853 34885 ft 463 kts 152°
2026-05-07 21:23 -6.21381 -58.22754 34885 ft 463 kts 152°
2026-05-07 21:24 -6.27041 -58.19680 34884 ft 463 kts 152°
2026-05-07 21:24 -6.32707 -58.16605 34882 ft 463 kts 152°
2026-05-07 21:25 -6.38372 -58.13526 34884 ft 463 kts 152°
2026-05-07 21:25 -6.44033 -58.10448 34884 ft 463 kts 152°
2026-05-07 21:26 -6.49698 -58.07377 34885 ft 462 kts 152°
2026-05-07 21:26 -6.55359 -58.04304 34887 ft 462 kts 152°
2026-05-07 21:27 -6.61013 -58.01219 34888 ft 462 kts 152°
2026-05-07 21:27 -6.66667 -57.98139 34891 ft 462 kts 152°
2026-05-07 21:28 -6.72322 -57.95072 34892 ft 462 kts 152°
2026-05-07 21:28 -6.77977 -57.91996 34891 ft 462 kts 152°
2026-05-07 21:29 -6.83624 -57.88920 34896 ft 461 kts 152°
2026-05-07 21:29 -6.89272 -57.85848 34896 ft 461 kts 152°
2026-05-07 21:30 -6.94910 -57.82775 34894 ft 461 kts 152°
2026-05-07 21:30 -7.00585 -57.79679 34899 ft 461 kts 152°
2026-05-07 21:31 -7.06221 -57.76604 34896 ft 461 kts 152°
2026-05-07 21:31 -7.11855 -57.73529 34900 ft 460 kts 152°
2026-05-07 21:32 -7.17486 -57.70459 34898 ft 460 kts 152°
2026-05-07 21:32 -7.23119 -57.67395 34896 ft 460 kts 152°
2026-05-07 21:33 -7.28746 -57.64326 34895 ft 460 kts 152°
2026-05-07 21:33 -7.34371 -57.61255 34897 ft 460 kts 152°
2026-05-07 21:34 -7.39992 -57.58188 34897 ft 459 kts 152°
2026-05-07 21:34 -7.45606 -57.55116 34896 ft 459 kts 152°
2026-05-07 21:35 -7.51217 -57.52053 34898 ft 459 kts 152°
2026-05-07 21:35 -7.56828 -57.48987 34900 ft 458 kts 152°
2026-05-07 21:36 -7.62432 -57.45926 34899 ft 458 kts 152°
2026-05-07 21:36 -7.68029 -57.42862 34899 ft 458 kts 152°
2026-05-07 21:37 -7.73621 -57.39801 34900 ft 457 kts 152°
2026-05-07 21:37 -7.79218 -57.36742 34898 ft 457 kts 152°
2026-05-07 21:38 -7.84806 -57.33681 34895 ft 457 kts 152°
2026-05-07 21:38 -7.90427 -57.30606 34898 ft 456 kts 152°
2026-05-07 21:39 -7.96005 -57.27546 34896 ft 456 kts 152°
2026-05-07 21:39 -8.01580 -57.24498 34898 ft 456 kts 152°
2026-05-07 21:40 -8.07154 -57.21441 34901 ft 455 kts 152°
2026-05-07 21:40 -8.12721 -57.18384 34899 ft 455 kts 152°
2026-05-07 21:41 -8.18280 -57.15336 34898 ft 455 kts 152°
2026-05-07 21:41 -8.23836 -57.12291 34898 ft 454 kts 152°
2026-05-07 21:42 -8.29392 -57.09248 34898 ft 454 kts 152°
2026-05-07 21:42 -8.34940 -57.06206 34896 ft 454 kts 152°
2026-05-07 21:43 -8.40489 -57.03155 34898 ft 454 kts 152°
2026-05-07 21:43 -8.46027 -57.00105 34894 ft 454 kts 152°
2026-05-07 21:44 -8.51570 -56.97055 34892 ft 453 kts 153°
2026-05-07 21:44 -8.57116 -56.94015 34890 ft 453 kts 153°
2026-05-07 21:45 -8.62655 -56.90974 34884 ft 453 kts 153°
2026-05-07 21:45 -8.68198 -56.87934 34884 ft 453 kts 153°
2026-05-07 21:46 -8.73731 -56.84880 34881 ft 453 kts 153°
2026-05-07 21:46 -8.79302 -56.81811 34881 ft 453 kts 153°
2026-05-07 21:47 -8.84833 -56.78766 34882 ft 453 kts 153°
2026-05-07 21:47 -8.90360 -56.75726 34879 ft 453 kts 153°
2026-05-07 21:48 -8.95892 -56.72679 34878 ft 453 kts 153°
2026-05-07 21:48 -9.01417 -56.69633 34878 ft 453 kts 153°
2026-05-07 21:49 -9.06945 -56.66581 34878 ft 453 kts 153°
2026-05-07 21:49 -9.12482 -56.63528 34879 ft 453 kts 153°
2026-05-07 21:50 -9.18017 -56.60485 34875 ft 453 kts 153°
2026-05-07 21:50 -9.23549 -56.57431 34879 ft 453 kts 153°
2026-05-07 21:51 -9.29083 -56.54371 34877 ft 453 kts 153°
2026-05-07 21:51 -9.34619 -56.51314 34882 ft 453 kts 153°
2026-05-07 21:52 -9.40159 -56.48255 34879 ft 453 kts 153°
2026-05-07 21:52 -9.45695 -56.45194 34879 ft 454 kts 153°
2026-05-07 21:53 -9.51236 -56.42132 34880 ft 454 kts 153°
2026-05-07 21:53 -9.56776 -56.39070 34878 ft 454 kts 153°
2026-05-07 21:54 -9.62314 -56.36006 34878 ft 453 kts 153°
2026-05-07 21:54 -9.66948 -56.33439 34887 ft 453 kts 153°
2026-05-07 21:55 -9.72485 -56.30370 34891 ft 453 kts 153°
2026-05-07 21:55 -9.78021 -56.27301 34895 ft 453 kts 153°
2026-05-07 21:56 -9.83555 -56.24238 34900 ft 453 kts 153°
2026-05-07 21:56 -9.89090 -56.21167 34900 ft 453 kts 153°
2026-05-07 21:57 -9.94618 -56.18095 34896 ft 453 kts 153°
2026-05-07 21:57 -10.00156 -56.15021 34896 ft 454 kts 153°
2026-05-07 21:58 -10.05699 -56.11948 34893 ft 454 kts 153°
2026-05-07 21:58 -10.11242 -56.08876 34885 ft 454 kts 153°
2026-05-07 21:59 -10.16781 -56.05796 34882 ft 454 kts 153°
2026-05-07 21:59 -10.22357 -56.02694 34880 ft 454 kts 153°
2026-05-07 22:00 -10.27899 -55.99614 34874 ft 454 kts 153°
2026-05-07 22:00 -10.33446 -55.96532 34877 ft 455 kts 153°
2026-05-07 22:01 -10.39001 -55.93443 34884 ft 455 kts 153°
2026-05-07 22:01 -10.44550 -55.90356 34885 ft 455 kts 153°
2026-05-07 22:02 -10.50100 -55.87260 34882 ft 455 kts 153°
2026-05-07 22:02 -10.55648 -55.84162 34877 ft 455 kts 153°
2026-05-07 22:03 -10.61191 -55.81067 34873 ft 455 kts 153°
2026-05-07 22:03 -10.66739 -55.77973 34874 ft 455 kts 153°
2026-05-07 22:04 -10.72299 -55.74880 34872 ft 455 kts 153°
2026-05-07 22:04 -10.77858 -55.71782 34880 ft 455 kts 153°
2026-05-07 22:05 -10.83410 -55.68678 34880 ft 456 kts 153°
2026-05-07 22:05 -10.88968 -55.65571 34882 ft 456 kts 153°
2026-05-07 22:06 -10.94536 -55.62461 34886 ft 456 kts 153°
2026-05-07 22:06 -11.00136 -55.59322 34890 ft 457 kts 153°
2026-05-07 22:07 -11.05704 -55.56206 34893 ft 457 kts 153°
2026-05-07 22:07 -11.11271 -55.53088 34896 ft 456 kts 153°
2026-05-07 22:08 -11.16837 -55.49975 34892 ft 456 kts 153°
2026-05-07 22:08 -11.22399 -55.46863 34893 ft 456 kts 153°
2026-05-07 22:09 -11.27996 -55.43818 34893 ft 456 kts 156°
2026-05-07 22:09 -11.33735 -55.41090 34893 ft 455 kts 158°
2026-05-07 22:10 -11.39514 -55.38465 34890 ft 455 kts 158°
2026-05-07 22:10 -11.45271 -55.35784 34894 ft 455 kts 157°
2026-05-07 22:11 -11.51013 -55.33051 34892 ft 455 kts 157°
2026-05-07 22:11 -11.56750 -55.30305 34893 ft 455 kts 157°
2026-05-07 22:12 -11.62494 -55.27579 34895 ft 455 kts 157°
2026-05-07 22:12 -11.68236 -55.24854 34899 ft 455 kts 157°
2026-05-07 22:13 -11.73978 -55.22123 34896 ft 455 kts 157°
2026-05-07 22:13 -11.79642 -55.19194 34897 ft 457 kts 153°
2026-05-07 22:14 -11.85196 -55.15952 34896 ft 457 kts 152°
2026-05-07 22:14 -11.90699 -55.12703 34898 ft 457 kts 152°
2026-05-07 22:15 -11.96239 -55.09524 34896 ft 457 kts 153°
2026-05-07 22:15 -12.01795 -55.06372 34900 ft 457 kts 153°
2026-05-07 22:16 -12.07350 -55.03215 34896 ft 457 kts 153°
2026-05-07 22:16 -12.12892 -55.00047 34900 ft 457 kts 153°
2026-05-07 22:17 -12.18443 -54.96885 34900 ft 456 kts 153°
2026-05-07 22:17 -12.23987 -54.93724 34902 ft 456 kts 153°
2026-05-07 22:18 -12.32297 -54.88971 34904 ft 456 kts 153°
2026-05-07 22:19 -12.37843 -54.85806 34903 ft 456 kts 153°
2026-05-07 22:19 -12.43381 -54.82638 34903 ft 456 kts 153°
2026-05-07 22:20 -12.48916 -54.79469 34906 ft 456 kts 153°
2026-05-07 22:20 -12.54469 -54.76345 34908 ft 456 kts 154°
2026-05-07 22:21 -12.60029 -54.73224 34908 ft 456 kts 153°
2026-05-07 22:21 -12.65582 -54.70092 34906 ft 455 kts 153°
2026-05-07 22:22 -12.71168 -54.66942 34904 ft 455 kts 154°
2026-05-07 22:22 -12.76724 -54.63813 34903 ft 455 kts 154°
2026-05-07 22:23 -12.82271 -54.60684 34902 ft 455 kts 153°
2026-05-07 22:23 -12.87827 -54.57546 34902 ft 456 kts 154°
2026-05-07 22:24 -12.93377 -54.54418 34905 ft 455 kts 154°
2026-05-07 22:24 -12.98934 -54.51289 34905 ft 455 kts 154°
2026-05-07 22:25 -13.04487 -54.48158 34903 ft 456 kts 154°
2026-05-07 22:25 -13.10034 -54.45014 34907 ft 456 kts 154°
2026-05-07 22:26 -13.15583 -54.41880 34908 ft 455 kts 154°
2026-05-07 22:26 -13.21142 -54.38749 34907 ft 455 kts 154°
2026-05-07 22:27 -13.26694 -54.35615 34913 ft 455 kts 154°
2026-05-07 22:27 -13.31342 -54.32987 34913 ft 455 kts 154°
2026-05-07 22:28 -13.37781 -54.29333 34914 ft 455 kts 154°
2026-05-07 22:28 -13.42428 -54.26698 34919 ft 455 kts 154°
2026-05-07 22:29 -13.47971 -54.23560 34918 ft 455 kts 154°
2026-05-07 22:29 -13.53507 -54.20425 34922 ft 454 kts 154°
2026-05-07 22:30 -13.59045 -54.17285 34920 ft 454 kts 154°
2026-05-07 22:30 -13.64581 -54.14145 34924 ft 454 kts 154°
2026-05-07 22:31 -13.70111 -54.11006 34925 ft 454 kts 154°
2026-05-07 22:31 -13.75641 -54.07858 34920 ft 454 kts 154°
2026-05-07 22:32 -13.81165 -54.04717 34923 ft 454 kts 154°
2026-05-07 22:32 -13.86695 -54.01575 34925 ft 454 kts 154°
2026-05-07 22:33 -13.92221 -53.98432 34929 ft 454 kts 154°
2026-05-07 22:33 -13.97743 -53.95284 34924 ft 454 kts 154°
2026-05-07 22:34 -14.03260 -53.92138 34924 ft 454 kts 154°
2026-05-07 22:34 -14.08824 -53.88968 34928 ft 454 kts 154°
2026-05-07 22:35 -14.14348 -53.85825 34929 ft 454 kts 154°
2026-05-07 22:35 -14.19872 -53.82679 34931 ft 454 kts 154°
2026-05-07 22:36 -14.25393 -53.79522 34934 ft 454 kts 154°
2026-05-07 22:36 -14.30911 -53.76359 34931 ft 453 kts 154°
2026-05-07 22:37 -14.36430 -53.73204 34956 ft 455 kts 154°
2026-05-07 22:37 -14.41980 -53.70055 34922 ft 456 kts 155°
2026-05-07 22:38 -14.47631 -53.67085 34919 ft 456 kts 156°
2026-05-07 22:38 -14.53327 -53.64187 34924 ft 457 kts 156°
2026-05-07 22:39 -14.58990 -53.61194 34921 ft 458 kts 154°
2026-05-07 22:39 -14.64526 -53.57902 34927 ft 459 kts 152°
2026-05-07 22:40 -14.70020 -53.54525 34932 ft 460 kts 153°
2026-05-07 22:40 -14.75547 -53.51209 34935 ft 459 kts 153°
2026-05-07 22:41 -14.81101 -53.47943 34939 ft 459 kts 153°
2026-05-07 22:41 -14.86655 -53.44671 34942 ft 460 kts 153°
2026-05-07 22:42 -14.92210 -53.41377 34944 ft 460 kts 153°
2026-05-07 22:42 -14.97788 -53.38059 34943 ft 460 kts 153°
2026-05-07 22:43 -15.03324 -53.34773 34946 ft 457 kts 154°
2026-05-07 22:43 -15.08866 -53.31577 34957 ft 455 kts 154°
2026-05-07 22:44 -15.14393 -53.28416 34959 ft 454 kts 154°
2026-05-07 22:44 -15.19918 -53.25251 34954 ft 453 kts 154°
2026-05-07 22:45 -15.25420 -53.22084 34955 ft 452 kts 154°
2026-05-07 22:45 -15.30909 -53.18910 34954 ft 452 kts 154°
2026-05-07 22:46 -15.36398 -53.15736 34954 ft 452 kts 154°
2026-05-07 22:46 -15.41883 -53.12564 34948 ft 452 kts 154°
2026-05-07 22:47 -15.47371 -53.09396 34948 ft 451 kts 154°
2026-05-07 22:47 -15.52863 -53.06225 34948 ft 451 kts 154°
2026-05-07 22:48 -15.58340 -53.03049 34951 ft 451 kts 154°
2026-05-07 22:48 -15.63820 -52.99864 34948 ft 451 kts 154°
2026-05-07 22:49 -15.69292 -52.96680 34950 ft 451 kts 154°
2026-05-07 22:49 -15.74765 -52.93504 34948 ft 451 kts 154°
2026-05-07 22:50 -15.80243 -52.90324 34951 ft 451 kts 154°
2026-05-07 22:50 -15.85748 -52.87121 34948 ft 450 kts 154°
2026-05-07 22:51 -15.91214 -52.83942 34948 ft 450 kts 154°
2026-05-07 22:51 -15.96677 -52.80752 34950 ft 450 kts 154°
2026-05-07 22:52 -16.02140 -52.77573 34952 ft 450 kts 154°
2026-05-07 22:52 -16.07601 -52.74393 34954 ft 450 kts 154°
2026-05-07 22:53 -16.13065 -52.71202 34955 ft 450 kts 154°
2026-05-07 22:53 -16.18524 -52.68019 34956 ft 450 kts 154°
2026-05-07 22:54 -16.23987 -52.64828 34955 ft 450 kts 154°
2026-05-07 22:54 -16.29437 -52.61639 34958 ft 449 kts 154°
2026-05-07 22:55 -16.34885 -52.58446 34957 ft 449 kts 154°
2026-05-07 22:55 -16.40332 -52.55256 34961 ft 449 kts 154°
2026-05-07 22:56 -16.45775 -52.52068 34966 ft 449 kts 154°
2026-05-07 22:56 -16.51220 -52.48882 34964 ft 449 kts 154°
2026-05-07 22:57 -16.56660 -52.45691 34971 ft 449 kts 154°
2026-05-07 22:57 -16.62130 -52.42479 34975 ft 448 kts 154°
2026-05-07 22:58 -16.67560 -52.39281 34976 ft 448 kts 154°
2026-05-07 22:58 -16.72986 -52.36096 34983 ft 448 kts 154°
2026-05-07 22:59 -16.78425 -52.32918 34984 ft 447 kts 154°
2026-05-07 22:59 -16.83849 -52.29741 34985 ft 447 kts 154°
2026-05-07 23:00 -16.88358 -52.27094 34991 ft 447 kts 154°
2026-05-07 23:00 -16.93768 -52.23914 34971 ft 445 kts 154°
2026-05-07 23:01 -16.99156 -52.20739 34975 ft 444 kts 154°
2026-05-07 23:01 -17.04581 -52.17547 34978 ft 444 kts 154°
2026-05-07 23:02 -17.09974 -52.14398 34980 ft 444 kts 155°
2026-05-07 23:02 -17.15384 -52.11282 34988 ft 444 kts 155°
2026-05-07 23:03 -17.20803 -52.08161 34990 ft 445 kts 155°
2026-05-07 23:03 -17.26211 -52.05021 35005 ft 445 kts 155°
2026-05-07 23:04 -17.31625 -52.01877 35003 ft 445 kts 155°
2026-05-07 23:04 -17.37043 -51.98739 35008 ft 445 kts 155°
2026-05-07 23:05 -17.42460 -51.95592 35011 ft 445 kts 155°
2026-05-07 23:05 -17.47876 -51.92444 35011 ft 445 kts 155°
2026-05-07 23:06 -17.53283 -51.89295 35017 ft 445 kts 155°
2026-05-07 23:06 -17.58696 -51.86146 35013 ft 445 kts 155°
2026-05-07 23:07 -17.64105 -51.82995 35020 ft 445 kts 155°
2026-05-07 23:07 -17.69510 -51.79843 35010 ft 445 kts 155°
2026-05-07 23:08 -17.74915 -51.76694 35002 ft 444 kts 155°
2026-05-07 23:08 -17.80322 -51.73551 35003 ft 444 kts 155°
2026-05-07 23:09 -17.85757 -51.70377 34999 ft 444 kts 155°
2026-05-07 23:09 -17.91126 -51.67226 34985 ft 431 kts 155°
2026-05-07 23:09 -17.93675 -51.65709 34984 ft 414 kts 155°
2026-05-07 23:10 -17.96146 -51.64254 34985 ft 401 kts 155°
2026-05-07 23:10 -18.01030 -51.61420 34984 ft 409 kts 156°
2026-05-07 23:10 -18.03557 -51.59960 34981 ft 420 kts 155°
2026-05-07 23:11 -18.06149 -51.58453 34983 ft 431 kts 155°
2026-05-07 23:11 -18.11470 -51.55345 34979 ft 442 kts 155°
2026-05-07 23:12 -18.16854 -51.52187 34974 ft 443 kts 155°
2026-05-07 23:12 -18.22239 -51.49011 34971 ft 444 kts 155°
2026-05-07 23:13 -18.27624 -51.45832 34967 ft 444 kts 154°
2026-05-07 23:13 -18.32970 -51.42548 34967 ft 445 kts 154°
2026-05-07 23:14 -18.38280 -51.39211 34964 ft 445 kts 153°
2026-05-07 23:14 -18.43603 -51.35883 34962 ft 445 kts 154°
2026-05-07 23:15 -18.48937 -51.32572 34964 ft 445 kts 154°
2026-05-07 23:15 -18.54282 -51.29269 34963 ft 445 kts 154°
2026-05-07 23:16 -18.59662 -51.25937 34960 ft 446 kts 154°
2026-05-07 23:16 -18.65011 -51.22617 34961 ft 446 kts 154°
2026-05-07 23:17 -18.70355 -51.19297 34961 ft 446 kts 154°
2026-05-07 23:17 -18.75703 -51.15971 34961 ft 446 kts 154°
2026-05-07 23:18 -18.81047 -51.12636 34961 ft 446 kts 154°
2026-05-07 23:18 -18.86396 -51.09310 34956 ft 446 kts 154°
2026-05-07 23:19 -18.91745 -51.05988 34956 ft 446 kts 154°
2026-05-07 23:19 -18.97091 -51.02651 34951 ft 446 kts 154°
2026-05-07 23:20 -19.02437 -50.99305 34952 ft 447 kts 153°
2026-05-07 23:20 -19.07740 -50.95856 34950 ft 448 kts 153°
2026-05-07 23:21 -19.13016 -50.92359 34950 ft 448 kts 153°
2026-05-07 23:21 -19.18303 -50.88874 34950 ft 448 kts 153°
2026-05-07 23:22 -19.23604 -50.85407 34948 ft 448 kts 153°
2026-05-07 23:22 -19.28902 -50.81941 34949 ft 448 kts 153°
2026-05-07 23:23 -19.34201 -50.78463 34948 ft 448 kts 153°
2026-05-07 23:23 -19.39532 -50.74960 34943 ft 448 kts 153°
2026-05-07 23:24 -19.44831 -50.71471 34944 ft 448 kts 153°
2026-05-07 23:24 -19.50132 -50.67977 34944 ft 449 kts 153°
2026-05-07 23:25 -19.55439 -50.64480 34950 ft 449 kts 153°
2026-05-07 23:25 -19.60745 -50.60984 34950 ft 449 kts 153°
2026-05-07 23:26 -19.66049 -50.57487 34951 ft 449 kts 153°
2026-05-07 23:26 -19.71377 -50.54016 34954 ft 449 kts 153°
2026-05-07 23:27 -19.79401 -50.48878 34960 ft 449 kts 153°
2026-05-07 23:27 -19.84817 -50.45393 34948 ft 461 kts 153°
2026-05-07 23:28 -19.90309 -50.41836 34950 ft 463 kts 153°
2026-05-07 23:28 -19.95810 -50.38265 34949 ft 463 kts 153°
2026-05-07 23:29 -20.01311 -50.34702 34944 ft 464 kts 153°
2026-05-07 23:29 -20.06822 -50.31127 34953 ft 464 kts 153°
2026-05-07 23:30 -20.12328 -50.27562 34960 ft 463 kts 154°
2026-05-07 23:30 -20.17959 -50.24161 34962 ft 462 kts 156°
2026-05-07 23:31 -20.23615 -50.20892 34959 ft 462 kts 156°
2026-05-07 23:31 -20.29253 -50.17605 34969 ft 463 kts 156°
2026-05-07 23:32 -20.33930 -50.14832 34968 ft 463 kts 155°
2026-05-07 23:32 -20.39544 -50.11481 34971 ft 463 kts 155°
2026-05-07 23:33 -20.45172 -50.08117 34974 ft 463 kts 155°
2026-05-07 23:33 -20.50796 -50.04772 34974 ft 463 kts 155°
2026-05-07 23:34 -20.56418 -50.01420 34976 ft 463 kts 155°
2026-05-07 23:34 -20.62070 -49.98054 34975 ft 462 kts 155°
2026-05-07 23:35 -20.67687 -49.94700 34974 ft 462 kts 155°
2026-05-07 23:35 -20.73294 -49.91349 34972 ft 462 kts 155°
2026-05-07 23:36 -20.78900 -49.87997 34973 ft 462 kts 155°
2026-05-07 23:36 -20.84505 -49.84638 34974 ft 462 kts 155°
2026-05-07 23:37 -20.90103 -49.81277 34972 ft 462 kts 155°
2026-05-07 23:37 -20.95707 -49.77921 34969 ft 462 kts 155°
2026-05-07 23:38 -21.01309 -49.74562 34971 ft 462 kts 155°
2026-05-07 23:38 -21.06919 -49.71200 34969 ft 462 kts 155°
2026-05-07 23:39 -21.12526 -49.67833 34970 ft 462 kts 155°
2026-05-07 23:39 -21.18135 -49.64456 34971 ft 462 kts 155°
2026-05-07 23:40 -21.23739 -49.61076 34968 ft 463 kts 155°
2026-05-07 23:40 -21.29351 -49.57691 34969 ft 463 kts 155°
2026-05-07 23:41 -21.34959 -49.54310 34971 ft 463 kts 155°
2026-05-07 23:41 -21.40571 -49.50918 34967 ft 463 kts 155°
2026-05-07 23:42 -21.46220 -49.47513 34967 ft 463 kts 155°
2026-05-07 23:42 -21.51830 -49.44124 34970 ft 463 kts 155°
2026-05-07 23:43 -21.57432 -49.40731 34965 ft 463 kts 155°
2026-05-07 23:43 -21.63052 -49.37315 34971 ft 463 kts 155°
2026-05-07 23:44 -21.68665 -49.33909 34967 ft 463 kts 155°
2026-05-07 23:44 -21.74278 -49.30502 34971 ft 463 kts 155°
2026-05-07 23:45 -21.79893 -49.27097 34971 ft 463 kts 155°
2026-05-07 23:45 -21.85510 -49.23689 34975 ft 464 kts 155°
2026-05-07 23:46 -21.91104 -49.20288 34975 ft 464 kts 155°
2026-05-07 23:46 -21.96721 -49.16862 34975 ft 464 kts 155°
2026-05-07 23:47 -22.02341 -49.13426 34979 ft 464 kts 155°
2026-05-07 23:47 -22.07943 -49.09942 34986 ft 467 kts 151°
2026-05-07 23:48 -22.12824 -49.05237 34999 ft 477 kts 135°
2026-05-07 23:48 -22.17186 -48.99858 35005 ft 476 kts 135°
2026-05-07 23:49 -22.21573 -48.94498 35009 ft 476 kts 136°
2026-05-07 23:49 -22.25981 -48.89099 35009 ft 476 kts 136°
2026-05-07 23:50 -22.30355 -48.83722 35006 ft 476 kts 136°
2026-05-07 23:50 -22.34723 -48.78342 35001 ft 476 kts 136°
2026-05-07 23:51 -22.39071 -48.72994 34998 ft 476 kts 136°
2026-05-07 23:51 -22.43434 -48.67622 34991 ft 476 kts 136°
2026-05-07 23:52 -22.47799 -48.62242 34991 ft 475 kts 136°
2026-05-07 23:52 -22.52155 -48.56864 34995 ft 475 kts 136°
2026-05-07 23:53 -22.56508 -48.51482 34992 ft 475 kts 136°
2026-05-07 23:53 -22.60542 -48.45786 34993 ft 483 kts 124°
2026-05-07 23:54 -22.63123 -48.39031 34997 ft 489 kts 112°
2026-05-07 23:54 -22.65292 -48.32044 34997 ft 489 kts 112°
2026-05-07 23:55 -22.67467 -48.25060 34994 ft 490 kts 112°
2026-05-07 23:55 -22.69640 -48.18066 34995 ft 490 kts 112°
2026-05-07 23:56 -22.71806 -48.11068 34434 ft 492 kts 112°
2026-05-07 23:56 -22.72903 -48.07524 33323 ft 500 kts 112°
2026-05-07 23:56 -22.74012 -48.03943 32259 ft 502 kts 111°
2026-05-07 23:57 -22.75129 -48.00329 30727 ft 499 kts 110°
2026-05-07 23:57 -22.76229 -47.96801 29109 ft 499 kts 112°
2026-05-07 23:57 -22.77648 -47.93404 28407 ft 476 kts 120°
2026-05-07 23:57 -22.79148 -47.90333 28229 ft 449 kts 120°
2026-05-07 23:58 -22.80585 -47.87339 27610 ft 447 kts 119°
2026-05-07 23:58 -22.82011 -47.84354 27015 ft 445 kts 119°
2026-05-07 23:58 -22.83432 -47.81378 26702 ft 444 kts 119°
2026-05-07 23:58 -22.84885 -47.78350 26502 ft 458 kts 119°
2026-05-07 23:59 -22.86367 -47.75278 26244 ft 461 kts 119°
2026-05-07 23:59 -22.87855 -47.72198 25982 ft 461 kts 119°
2026-05-07 23:59 -22.89340 -47.69125 25728 ft 460 kts 119°
2026-05-07 23:59 -22.90822 -47.66057 25471 ft 458 kts 119°
2026-05-08 00:00 -22.92292 -47.62999 25218 ft 456 kts 119°
2026-05-08 00:00 -22.93608 -47.60250 24989 ft 455 kts 119°
2026-05-08 00:00 -22.95064 -47.57205 24740 ft 453 kts 118°
2026-05-08 00:00 -22.96513 -47.54173 24490 ft 452 kts 118°
2026-05-08 00:01 -22.97960 -47.51151 24238 ft 450 kts 118°
2026-05-08 00:01 -22.99401 -47.48148 23989 ft 448 kts 118°
2026-05-08 00:01 -23.00839 -47.45158 23675 ft 447 kts 118°
2026-05-08 00:01 -23.02276 -47.42168 23316 ft 444 kts 118°
2026-05-08 00:02 -23.03698 -47.39201 22996 ft 442 kts 118°
2026-05-08 00:02 -23.05113 -47.36244 22625 ft 440 kts 118°
2026-05-08 00:02 -23.06517 -47.33306 22253 ft 437 kts 118°
2026-05-08 00:02 -23.07912 -47.30388 21876 ft 434 kts 118°
2026-05-08 00:03 -23.09300 -47.27488 21518 ft 431 kts 117°
2026-05-08 00:03 -23.10677 -47.24607 21153 ft 429 kts 117°
2026-05-08 00:03 -23.11766 -47.21616 20783 ft 425 kts 103°
2026-05-08 00:03 -23.12094 -47.18459 20473 ft 417 kts 86°
2026-05-08 00:04 -23.11676 -47.15416 20346 ft 401 kts 72°
2026-05-08 00:04 -23.10647 -47.12685 20229 ft 382 kts 58°
2026-05-08 00:04 -23.09151 -47.10418 19988 ft 358 kts 46°
2026-05-08 00:04 -23.07474 -47.08424 19447 ft 348 kts 45°
2026-05-08 00:05 -23.05868 -47.06541 18871 ft 341 kts 45°
2026-05-08 00:05 -23.04262 -47.04669 18327 ft 336 kts 45°
2026-05-08 00:05 -23.03198 -47.03428 17901 ft 331 kts 45°
2026-05-08 00:05 -23.01649 -47.01615 17342 ft 325 kts 45°
2026-05-08 00:06 -23.00107 -46.99807 16875 ft 327 kts 45°
2026-05-08 00:06 -22.98571 -46.98004 16497 ft 324 kts 45°
2026-05-08 00:06 -22.97035 -46.96202 16109 ft 323 kts 45°
2026-05-08 00:06 -22.95521 -46.94422 15772 ft 320 kts 45°
2026-05-08 00:07 -22.94014 -46.92650 15395 ft 319 kts 45°
2026-05-08 00:07 -22.92516 -46.90888 15044 ft 317 kts 45°
2026-05-08 00:07 -22.91026 -46.89137 14700 ft 315 kts 45°
2026-05-08 00:07 -22.89547 -46.87399 14335 ft 312 kts 45°
2026-05-08 00:08 -22.88101 -46.85700 14038 ft 301 kts 45°
2026-05-08 00:08 -22.86733 -46.83949 14027 ft 308 kts 53°
2026-05-08 00:08 -22.85664 -46.81924 14029 ft 310 kts 58°
2026-05-08 00:08 -22.84630 -46.79867 14025 ft 311 kts 58°
2026-05-08 00:09 -22.83596 -46.77815 14027 ft 311 kts 58°
2026-05-08 00:09 -22.82557 -46.75757 14028 ft 311 kts 58°
2026-05-08 00:09 -22.81529 -46.73696 14037 ft 312 kts 62°
2026-05-08 00:09 -22.80794 -46.71477 14035 ft 314 kts 70°
2026-05-08 00:10 -22.80173 -46.69202 14038 ft 314 kts 70°
2026-05-08 00:10 -22.79555 -46.66933 14040 ft 314 kts 70°
2026-05-08 00:10 -22.78935 -46.64662 14042 ft 314 kts 70°
2026-05-08 00:10 -22.78423 -46.62325 14046 ft 317 kts 81°
2026-05-08 00:11 -22.78272 -46.59937 14048 ft 318 kts 84°
2026-05-08 00:11 -22.78141 -46.57546 14050 ft 318 kts 84°
2026-05-08 00:11 -22.78010 -46.55161 14052 ft 317 kts 84°
2026-05-08 00:11 -22.77887 -46.52770 14053 ft 318 kts 86°
2026-05-08 00:12 -22.78095 -46.50380 14055 ft 321 kts 97°
2026-05-08 00:12 -22.78475 -46.47998 14060 ft 321 kts 97°
2026-05-08 00:12 -22.78849 -46.45619 14058 ft 320 kts 97°
2026-05-08 00:12 -22.79217 -46.43241 14063 ft 320 kts 97°
2026-05-08 00:13 -22.79726 -46.40890 14058 ft 322 kts 108°
2026-05-08 00:13 -22.80626 -46.38657 14064 ft 323 kts 112°
2026-05-08 00:13 -22.81570 -46.36445 14063 ft 324 kts 115°
2026-05-08 00:13 -22.82958 -46.34524 14063 ft 328 kts 140°
2026-05-08 00:14 -22.84967 -46.33370 14066 ft 330 kts 165°
2026-05-08 00:14 -22.87251 -46.33198 13761 ft 331 kts 191°
2026-05-08 00:14 -22.89364 -46.34074 13445 ft 325 kts 213°
2026-05-08 00:14 -22.91285 -46.35354 13157 ft 323 kts 213°
2026-05-08 00:15 -22.93194 -46.36628 12874 ft 322 kts 213°
2026-05-08 00:15 -22.95099 -46.37896 12585 ft 320 kts 213°
2026-05-08 00:15 -22.96994 -46.39155 12299 ft 319 kts 214°
2026-05-08 00:15 -22.98883 -46.40407 12015 ft 317 kts 214°
2026-05-08 00:16 -23.00760 -46.41651 11737 ft 316 kts 214°
2026-05-08 00:16 -23.02628 -46.42888 11457 ft 314 kts 214°
2026-05-08 00:16 -23.04492 -46.44122 11178 ft 313 kts 214°
2026-05-08 00:16 -23.06345 -46.45347 10894 ft 311 kts 214°
2026-05-08 00:17 -23.08191 -46.46568 10622 ft 310 kts 214°
2026-05-08 00:17 -23.10027 -46.47784 10350 ft 309 kts 214°
2026-05-08 00:17 -23.11856 -46.48996 10083 ft 307 kts 215°
2026-05-08 00:17 -23.13674 -46.50202 9798 ft 305 kts 215°
2026-05-08 00:18 -23.15505 -46.51421 9514 ft 304 kts 215°
2026-05-08 00:18 -23.17301 -46.52618 9274 ft 300 kts 215°
2026-05-08 00:18 -23.19057 -46.53783 9145 ft 291 kts 215°
2026-05-08 00:18 -23.20764 -46.54915 8995 ft 285 kts 215°
2026-05-08 00:19 -23.22432 -46.56052 8731 ft 282 kts 217°
2026-05-08 00:19 -23.24071 -46.57209 8441 ft 280 kts 217°
2026-05-08 00:19 -23.25699 -46.58375 8154 ft 279 kts 217°
2026-05-08 00:19 -23.27313 -46.59535 7897 ft 277 kts 217°
2026-05-08 00:20 -23.28919 -46.60681 7702 ft 275 kts 217°
2026-05-08 00:20 -23.30300 -46.61667 7533 ft 273 kts 216°
2026-05-08 00:20 -23.31888 -46.62800 7327 ft 272 kts 217°
2026-05-08 00:20 -23.33469 -46.63927 7140 ft 272 kts 217°
2026-05-08 00:21 -23.35052 -46.65056 6934 ft 272 kts 217°
2026-05-08 00:21 -23.36635 -46.66183 6739 ft 271 kts 217°
2026-05-08 00:21 -23.38211 -46.67303 6539 ft 270 kts 217°
2026-05-08 00:21 -23.39779 -46.68414 6330 ft 267 kts 216°
2026-05-08 00:22 -23.41493 -46.69141 6138 ft 267 kts 186°
2026-05-08 00:22 -23.43282 -46.68798 5904 ft 262 kts 150°
2026-05-08 00:22 -23.44592 -46.67518 5602 ft 251 kts 120°
2026-05-08 00:22 -23.45560 -46.65959 5332 ft 248 kts 120°
2026-05-08 00:23 -23.46522 -46.64409 5090 ft 244 kts 119°
2026-05-08 00:23 -23.47196 -46.62826 4894 ft 218 kts 95°
2026-05-08 00:23 -23.47240 -46.61295 4740 ft 191 kts 73°
2026-05-08 00:23 -23.46914 -46.59961 4527 ft 177 kts 68°
2026-05-08 00:24 -23.46577 -46.58706 4300 ft 166 kts 66°
2026-05-08 00:24 -23.46269 -46.57557 4128 ft 151 kts 66°
2026-05-08 00:24 -23.45980 -46.56487 3930 ft 144 kts 67°
2026-05-08 00:24 -23.45698 -46.55446 3748 ft 144 kts 67°
2026-05-08 00:25 -23.45417 -46.54407 3571 ft 142 kts 68°
2026-05-08 00:25 -23.45138 -46.53374 3399 ft 142 kts 69°
2026-05-08 00:25 -23.44859 -46.52338 3206 ft 143 kts 71°
2026-05-08 00:25 -23.44580 -46.51304 3010 ft 141 kts 72°
2026-05-08 00:26 -23.44302 -46.50271 2800 ft 140 kts 72°
2026-05-08 00:26 -23.44027 -46.49252 2611 ft 140 kts 72°
2026-05-08 00:26 -23.43758 -46.48257 2508 ft 134 kts 72°
2026-05-08 00:26 -23.43518 -46.47385 2471 ft 94 kts 72°
2026-05-08 00:27 -23.43413 -46.47021 2472 ft 7 kts 68°
2026-05-08 00:27 -23.43391 -46.46971 2470 ft 24 kts 59°
2026-05-08 00:27 -23.43275 -46.46828 2469 ft 23 kts 44°
2026-05-08 00:27 -23.43175 -46.46728 2471 ft 13 kts 32°
2026-05-08 00:28 -23.43143 -46.46713 2470 ft 0 kts 13°
2026-05-08 00:29 -23.43142 -46.46713 2470 ft 1 kts 13°
2026-05-08 00:29 -23.43102 -46.46710 2471 ft 7 kts 347°
2026-05-08 00:29 -23.43052 -46.46727 2472 ft 8 kts 341°
2026-05-08 00:29 -23.42993 -46.46749 2471 ft 10 kts 342°
2026-05-08 00:30 -23.42916 -46.46780 2470 ft 13 kts 339°
2026-05-08 00:30 -23.42855 -46.46836 2471 ft 12 kts 274°
2026-05-08 00:30 -23.42874 -46.46933 2469 ft 14 kts 254°
2026-05-08 00:30 -23.42905 -46.47044 2469 ft 16 kts 253°
2026-05-08 00:31 -23.42942 -46.47172 2470 ft 19 kts 253°
2026-05-08 00:31 -23.42981 -46.47319 2474 ft 20 kts 254°
2026-05-08 00:31 -23.42978 -46.47443 2471 ft 15 kts 312°
2026-05-08 00:31 -23.42873 -46.47490 2470 ft 17 kts 344°
2026-05-08 00:32 -23.42749 -46.47528 2470 ft 18 kts 344°
2026-05-08 00:32 -23.42719 -46.47579 2468 ft 8 kts 259°
2026-05-08 00:32 -23.42700 -46.47636 2468 ft 9 kts 277°
2026-05-08 00:32 -23.42703 -46.47664 2468 ft 0 kts 255°